Regional Weather Roundup
Issued by NWS

Home | Current Version | Previous Version | Graphics & Text | Print | Product List | Glossary On
Versions: 1 2 3 4 5 6 7 8 9 10 11 12 13 14 15 16 17 18 19 20 21 22 23 24 25 26 27 28 29 30 31 32 33 34 35 36 37 38 39 40 41 42 43 44 45 46 47 48 49 50
000
ASUS45 KABQ 040401
RWRNM
WEATHER ROUNDUP FOR NEW MEXICO
NATIONAL WEATHER SERVICE ALBUQUERQUE NM
1000 PM MDT SUN MAY 03 2015

NOTE: "FAIR" MEANS FEW OR NO CLOUDS BELOW 12,000 FEET AGL WITH NO
       SIGNIFICANT WEATHER OR OBSTRUCTIONS TO VISION.

      THIS PRODUCT IS RELEASED AS TWO VERSIONS.  ONE VERSION NEAR
      THE TOP OF THE HOUR CONTAINING PRELIMINARY DATA FROM ALBUQUERQUE
      AND OTHER STATIONS.  A FINAL VERSION WITH ADDITIONAL DATA IS
      ISSUED ABOUT 10 MINUTES AFTER THE HOUR.

NMZ501-503-504-510>518-040500-
NORTHWEST PLATEAU/NORTHCENTRAL MOUNTAINS

CITY           SKY/WX    TMP DP  RH WIND       PRES   REMARKS
FARMINGTON     PTCLDY    57  37  47 NW5       30.00S
SANTA FE       PTCLDY    53  38  56 N9        30.04R
TAOS           MOCLDY    48  34  57 N9        30.13S

$$
NMZ402-403-502-505>509-040500-
WESTCENTRAL MOUNTAINS/SOUTHWEST MOUNTAINS

CITY           SKY/WX    TMP DP  RH WIND       PRES   REMARKS
GALLUP         MOCLDY    53  37  54 E5        30.07R
GRANTS         CLOUDY    54  38  53 NW13G21   30.10R
SILVER CITY      N/A     59  34  38 N10       29.99S

$$
NMZ407-409-411-412-040500-
SOUTHERN DESERTS

CITY           SKY/WX    TMP DP  RH WIND       PRES   REMARKS
DEMING         CLOUDY    73  35  25 W7        29.91R
ALAMOGORDO     PTCLDY    73  30  20 N5        29.91R
T OR C         PTCLDY    65  31  28 NW5       29.94R

$$
NMZ519>523-040500-
CENTRAL VALLEYS/CENTRAL HIGHLANDS

CITY           SKY/WX    TMP DP  RH WIND       PRES   REMARKS
ALBUQUERQUE    PTCLDY    64  36  35 NW10      30.00R
DOUBLE EAGLE   PTCLDY    55  36  47 N3        30.03R
MORIARTY ARPT  FAIR      55  35  47 NE5       30.05R
CLINES CORNERS CLOUDY    57  34  41 NW12      30.07R
BELEN          FAIR      59  35  41 NW7       29.99R
SOCORRO        NOT AVBL

$$
NMZ524>526-539-540-040500-
SOUTHCENTRAL MOUNTAINS

CITY           SKY/WX    TMP DP  RH WIND       PRES   REMARKS
RUIDOSO        NOT AVBL

$$
NMZ527>531-040500-
NORTHEAST HIGHLANDS/NORTHEAST PLAINS

CITY           SKY/WX    TMP DP  RH WIND       PRES   REMARKS
LAS VEGAS      CLOUDY    51  39  63 N9        30.07F
RATON          MOCLDY    51  36  56 N6        30.06R
CLAYTON        CLOUDY    58  48  69 CALM      29.99R

$$
NMZ532>537-040500-
EASTCENTRAL PLAINS

CITY           SKY/WX    TMP DP  RH WIND       PRES   REMARKS
TUCUMCARI        N/A     68  48  48 N20       29.91R
CANNON AFB     NOT AVBL
CLOVIS AIRPORT MOCLDY    64  45  48 SE22      29.97R

$$
NMZ028-029-538-040500-
SOUTHEAST PLAINS

CITY           SKY/WX    TMP DP  RH WIND       PRES   REMARKS
ROSWELL        MOCLDY    69  44  40 S18       29.91R
ARTESIA        MOCLDY    70  46  43 S18       29.93R
CARLSBAD       MOCLDY    65  49  56 S15       29.91R
HOBBS          PTCLDY    66  43  42 SE14      29.94S


$$


USA.gov is the U.S. government's official web portal to all federal, state and local government web resources and services.